Location: F M Corners
(41.2198°N, 80.4709°W)
Time: 08:55:50
(UTC+00:00)

Meteor 2-14 Rocket - Pass Details

Date: 29 October 2020
Orbit: 937 x 957 km, 82.5° (Epoch: 26 November)

Event Time Altitude Azimuth Distance (km) Brightness Sun altitude
Rises 22:32:47 0° 353° (N) 3,639 7.4 -3.1°
Reaches altitude 10° 22:35:18 10° 355° (N) 2,687 6.7 -3.5°
Maximum altitude 22:41:27 76° 81° (E) 979 4.5 -4.6°
Drops below altitude 10° 22:47:32 10° 168° (SSE) 2,655 6.8 -5.8°
Sets 22:50:01 0° 169° (S) 3,593 7.5 -6.2°
